Weather History for Sault Ste Marie, MI

Change the Weather History Date:

Thursday, October 7, 2010

  Actual Average Record
Temperature  
Mean Temperature 57 °F 49 °F  
Max Temperature 63 °F 57 °F 76 °F (1913)
Min Temperature 50 °F 41 °F 26 °F (1964)
Degree Days  
Heating Degree Days 8 16  
Month to date heating degree days 108 105  
Since 1 July heating degree days 443 506  
Cooling Degree Days 0 0  
Month to date cooling degree days 0 0  
Year to date cooling degree days 307 195  
Growing Degree Days 8 (Base 50)    
Moisture  
Dew Point 43 °F    
Average Humidity 60    
Maximum Humidity 77    
Minimum Humidity 43    
Precipitation  
Precipitation 0.00 in 0.13 in 1.08 in (1903)
Month to date precipitation T 0.91  
Year to date precipitation 22.86 23.90  
Snow  
Snow 0.00 in 0.00 in 0.20 in (1989)
Month to date snowfall 0.0 0.1  
Since 1 July snowfall 0.0 0.1  
Snow Depth 0.00 in    
Sea Level Pressure  
Sea Level Pressure 29.90 in    
Wind  
Wind Speed 12 mph (WNW)    
Max Wind Speed 22 mph    
Max Gust Speed 30 mph    
Visibility 10 miles    
Events      
T = Trace of Precipitation, MM = Missing Value Source: NWS Daily Summary

Daily Weather History Graph

Daily Weather History Graph

Search for Another Location

Airport:

Trip Planner

Search our weather history database for the weather conditions in past years. The results will help you decide how hot, cold, wet, or windy it might be!

Date:

Astronomy

Oct. 07, 2010 Rise Set
Actual Time 7:43 AM EDT 7:05 PM EDT
Civil Twilight 7:13 AM EDT 7:35 PM EDT
Nautical Twilight 6:38 AM EDT 8:10 PM EDT
Astronomical Twilight 6:03 AM EDT 8:45 PM EDT
Moon 7:37 AM EDT (10/7) 6:36 PM EDT (10/7)
Length of Visible Light 12h 22m
Length of Day
11h 21m
Waning Crescent, 0% of the Moon is Illuminated
Oct 7
Waning Crescent
Oct 7
New
Oct 14
First Quarter
Oct 22
Full
Oct 30
Last Quarter

Hourly Weather History & Observations

Time (EDT) Temp. Dew Point Humidity Pressure Visibility Wind Dir Wind Speed Gust Speed Precip Events Conditions
12:55 AM 55.0 °F 45.0 °F 69% 29.86 in 10.0 mi NW 10.4 mph - N/A   Clear
1:55 AM 55.0 °F 44.1 °F 67% 29.85 in 10.0 mi WNW 4.6 mph - N/A   Clear
2:55 AM 55.0 °F 44.1 °F 67% 29.84 in 10.0 mi West 9.2 mph - N/A   Clear
3:55 AM 55.0 °F 44.1 °F 67% 29.84 in 10.0 mi WNW 10.4 mph 18.4 mph N/A   Clear
4:55 AM 54.0 °F 45.0 °F 72% 29.83 in 10.0 mi WNW 9.2 mph - N/A   Clear
5:55 AM 54.0 °F 46.0 °F 75% 29.84 in 10.0 mi NW 11.5 mph - N/A   Clear
6:55 AM 55.0 °F 46.0 °F 72% 29.86 in 10.0 mi WNW 10.4 mph - N/A   Clear
7:55 AM 54.0 °F 46.0 °F 75% 29.87 in 10.0 mi NW 8.1 mph - N/A   Clear
8:55 AM 55.9 °F 45.0 °F 67% 29.90 in 10.0 mi NW 11.5 mph - N/A   Clear
9:55 AM 57.9 °F 41.0 °F 53% 29.91 in 10.0 mi NW 13.8 mph 21.9 mph N/A   Clear
10:55 AM 60.1 °F 41.0 °F 49% 29.93 in 10.0 mi NW 13.8 mph 19.6 mph N/A   Clear
11:55 AM 61.0 °F 39.0 °F 44% 29.94 in 10.0 mi NW 11.5 mph 24.2 mph N/A   Clear
12:55 PM 61.0 °F 42.1 °F 50% 29.95 in 10.0 mi NW 16.1 mph 25.3 mph N/A   Clear
1:55 PM 62.1 °F 39.0 °F 43% 29.94 in 10.0 mi WNW 16.1 mph 26.5 mph N/A   Clear
2:55 PM 63.0 °F 41.0 °F 45% 29.92 in 10.0 mi WNW 18.4 mph 26.5 mph N/A   Clear
3:55 PM 62.1 °F 39.9 °F 44% 29.92 in 10.0 mi WNW 17.3 mph 27.6 mph N/A   Clear
4:55 PM 61.0 °F 41.0 °F 48% 29.93 in 10.0 mi WNW 15.0 mph 25.3 mph N/A   Clear
5:55 PM 60.1 °F 41.0 °F 49% 29.93 in 10.0 mi NW 15.0 mph 26.5 mph N/A   Clear
6:55 PM 57.9 °F 43.0 °F 58% 29.93 in 10.0 mi WNW 16.1 mph 21.9 mph N/A   Clear
7:55 PM 57.0 °F 43.0 °F 59% 29.94 in 10.0 mi WNW 11.5 mph - N/A   Clear
8:55 PM 57.0 °F 43.0 °F 59% 29.94 in 10.0 mi West 11.5 mph 19.6 mph N/A   Clear
9:55 PM 54.0 °F 43.0 °F 66% 29.94 in 10.0 mi West 5.8 mph - N/A   Clear
10:55 PM 52.0 °F 44.1 °F 74% 29.94 in 10.0 mi WSW 6.9 mph - N/A   Clear
11:55 PM 51.1 °F 39.9 °F 66% 29.93 in 10.0 mi WSW 5.8 mph - N/A   Clear